This demonstration page uses our WeatherBlox Daily Observations layout. Learn more.

Left ArrowRight Arrow

Hourly Observations for August 2, 2021

Temp ( °F °C ) Dew Point ( °F °C ) Humidity (%) Winds ( mph kmh ) Pressure ( in mb ) Visibility ( mi km ) Precip ( " mm )
12:15 am 00:15 Clear 57 14 52 11.1 83 83 NNW 5 7 30.11 1020 10 16 0.00 0.00
12:35 am 00:35 Clear 56 13.6 52 11.2 86 86 NNW 5 7 30.11 1020 10 16 0.00 0.00
12:55 am 00:55 Clear 56 13.2 52 11.1 87 87 Calm 30.11 1020 10 16 0.00 0.00
1:15 am 01:15 Clear 54 12.1 52 11 93 93 Calm 30.12 1020 10 16 0.00 0.00
1:35 am 01:35 Clear 54 12.3 52 11.2 93 93 NW 3 6 30.12 1020 10 16 0.00 0.00
1:55 am 01:55 Clear 53 11.9 52 11.1 95 95 Calm 30.12 1020 10 16 0.00 0.00
2:15 am 02:15 Clear 55 12.5 52 11.2 92 92 NNW 3 6 30.12 1020 10 16 0.00 0.00
2:35 am 02:35 Clear 55 12.6 52 11.3 92 92 NNW 3 6 30.12 1020 10 16 0.00 0.00
2:55 am 02:55 Clear 54 12 52 11.1 94 94 Calm 30.12 1020 10 16 0.00 0.00
3:15 am 03:15 Clear 53 11.9 52 11.1 95 95 NNW 3 6 30.12 1020 10 16 0.00 0.00
3:35 am 03:35 Clear 54 12 52 11.1 94 94 Calm 30.12 1020 10 16 0.00 0.00
3:55 am 03:55 Clear 53 11.6 52 11 96 96 Calm 30.13 1020 10 16 0.00 0.00
4:15 am 04:15 Clear 54 12 52 11.2 95 95 N 3 6 30.13 1020 10 16 0.00 0.00
4:35 am 04:35 Clear 53 11.6 52 11.1 97 97 Calm 30.14 1020 10 16 0.00 0.00
4:55 am 04:55 Clear 51 10.7 51 10.3 97 97 Calm 30.14 1021 7 11 0.00 0.00
5:15 am 05:15 Clear 51 10.3 50 10 98 98 Calm 30.14 1021 10 16 0.00 0.00
5:35 am 05:35 Clear 51 10.6 50 10.2 97 97 Calm 30.14 1021 10 16 0.00 0.00
5:55 am 05:55 Clear 51 10.5 50 10.2 98 98 NNW 3 6 30.15 1021 7 11 0.00 0.00
6:15 am 06:15 Clear 51 10.5 50 10.2 98 98 NNW 3 6 30.15 1021 7 11 0.00 0.00
6:35 am 06:35 Clear 50 10 49 9.7 98 98 Calm 30.16 1021 7 11 0.00 0.00
6:55 am 06:55 Sunny with Mist and Fog 50 10.1 50 10 99 99 N 3 6 30.15 1021 4 6 0.00 0.00
7:15 am 07:15 Sunny with Mist and Fog 50 10.1 50 9.9 99 99 Calm 30.16 1021 5 8 0.00 0.00
7:35 am 07:35 Sunny with Mist and Fog 51 10.6 51 10.4 99 99 Calm 30.16 1021 5 8 0.00 0.00
7:55 am 07:55 Sunny with Mist and Fog 54 12 53 11.8 99 99 Calm 30.16 1021 4 6 0.00 0.00
8:15 am 08:15 Sunny 56 13.1 55 12.6 97 97 Calm 30.17 1022 7 11 0.00 0.00
8:35 am 08:35 Sunny 58 14.3 56 13.3 94 94 Calm 30.17 1022 10 16 0.00 0.00
8:55 am 08:55 Sunny 60 15.4 57 13.7 90 90 Calm 30.17 1022 10 16 0.00 0.00
9:15 am 09:15 Sunny 61 15.9 57 13.7 87 87 Calm 30.17 1022 10 16 0.00 0.00
9:35 am 09:35 Sunny 63 17 57 13.9 82 82 NE 5 7 30.17 1022 10 16 0.00 0.00
9:55 am 09:55 Sunny 64 17.5 57 13.9 80 80 Calm 30.16 1021 10 16 0.00 0.00
10:15 am 10:15 Sunny 65 18.1 56 13.6 75 75 Calm 30.16 1021 10 16 0.00 0.00
10:35 am 10:35 Sunny 65 18.6 56 13.5 72 72 Calm 30.16 1021 10 16 0.00 0.00
10:55 am 10:55 Sunny 67 19.6 57 13.9 70 70 ENE 3 6 30.16 1021 10 16 0.00 0.00
11:15 am 11:15 Sunny 67 19.7 57 13.7 68 68 Calm 30.16 1021 10 16 0.00 0.00
11:35 am 11:35 Partly Cloudy 68 19.9 57 13.8 68 68 ENE 5 7 30.16 1021 10 16 0.00 0.00
11:55 am 11:55 Partly Cloudy 69 20.6 57 14 66 66 NE 6 9 30.15 1021 10 16 0.00 0.00
12:15 pm 12:15 Partly Cloudy 69 20.6 56 13.6 64 64 N 3 6 30.15 1021 10 16 0.00 0.00
12:35 pm 12:35 Sunny 71 21.5 57 14.1 63 63 E 5 7 30.14 1021 10 16 0.00 0.00
12:55 pm 12:55 Partly Cloudy 71 21.7 58 14.3 63 63 E 6 9 30.14 1021 10 16 0.00 0.00
1:15 pm 13:15 Mostly Cloudy 72 22.1 57 14 60 60 NE 7 11 30.13 1020 10 16 0.00 0.00
1:35 pm 13:35 Partly Cloudy 72 22.1 56 13.4 58 58 ENE 5 7 30.13 1020 10 16 0.00 0.00
1:55 pm 13:55 Partly Cloudy 73 22.6 58 14.7 61 61 NE 6 9 30.13 1020 10 16 0.00 0.00
2:15 pm 14:15 Partly Cloudy 73 22.7 58 14.3 59 59 NE 8 13 30.12 1020 10 16 0.00 0.00
2:35 pm 14:35 Partly Cloudy 73 22.7 57 13.9 58 58 NNE 7 11 30.12 1020 10 16 0.00 0.00
2:55 pm 14:55 Partly Cloudy 72 22.3 56 13.4 57 57 NE 8 13 30.12 1020 10 16 0.00 0.00
3:15 pm 15:15 Partly Cloudy 74 23.2 56 13.4 54 54 NNE 6 9 30.11 1019 10 16 0.00 0.00
3:35 pm 15:35 Partly Cloudy 74 23.5 55 12.7 51 51 ENE 5 7 30.10 1019 10 16 0.00 0.00
3:55 pm 15:55 Partly Cloudy 75 23.7 56 13.3 52 52 NE 8 13 30.09 1019 10 16 0.00 0.00
4:15 pm 16:15 Sunny 75 23.9 55 12.7 50 50 NNE 3 6 30.08 1019 10 16 0.00 0.00
4:35 pm 16:35 Partly Cloudy 73 23 56 13.1 54 54 NNE 5 7 30.09 1019 10 16 0.00 0.00
4:55 pm 16:55 Partly Cloudy 73 22.5 55 12.6 54 54 NNE 5 7 30.09 1019 10 16 0.00 0.00
5:15 pm 17:15 Partly Cloudy 74 23.6 55 12.7 51 51 NNE 5 7 30.07 1018 10 16 0.00 0.00
5:35 pm 17:35 Partly Cloudy 75 23.8 55 12.9 51 51 NE 7 11 30.07 1018 10 16 0.00 0.00
5:55 pm 17:55 Partly Cloudy 74 23.5 54 12.3 50 50 NE 5 7 30.07 1018 10 16 0.00 0.00
6:15 pm 18:15 Sunny 75 23.7 54 12.3 49 49 NE 6 9 30.07 1018 10 16 0.00 0.00
6:35 pm 18:35 Sunny 74 23.5 54 12.3 50 50 N 3 6 30.07 1018 10 16 0.00 0.00
6:55 pm 18:55 Sunny 74 23.2 55 12.7 52 52 NE 5 7 30.08 1018 10 16 0.00 0.00
7:15 pm 19:15 Sunny 73 23 55 12.7 52 52 NE 6 9 30.08 1018 10 16 0.00 0.00
7:35 pm 19:35 Sunny 73 22.5 56 13.2 56 56 NNE 5 7 30.08 1019 10 16 0.00 0.00
7:55 pm 19:55 Sunny 72 22 55 13 57 57 NNE 5 7 30.08 1019 10 16 0.00 0.00
8:15 pm 20:15 Sunny 70 20.9 57 13.8 64 64 NNE 5 7 30.08 1019 10 16 0.00 0.00
8:35 pm 20:35 Sunny 67 19.5 58 14.2 72 72 NNE 5 7 30.09 1019 10 16 0.00 0.00
8:55 pm 20:55 Sunny 64 18 59 14.9 82 82 NNE 3 6 30.09 1019 10 16 0.00 0.00
9:15 pm 21:15 Clear 63 17.2 58 14.4 84 84 NNE 3 6 30.10 1019 10 16 0.00 0.00
9:35 pm 21:35 Clear 62 16.7 57 14 84 84 Calm 30.10 1019 10 16 0.00 0.00
9:55 pm 21:55 Clear 61 16 57 13.8 87 87 NNE 3 6 30.11 1020 10 16 0.00 0.00
10:15 pm 22:15 Clear 60 15.4 57 13.7 90 90 NNE 3 6 30.11 1020 10 16 0.00 0.00
10:35 pm 22:35 Clear 59 15.1 56 13.5 90 90 NNE 5 7 30.11 1020 10 16 0.00 0.00
10:55 pm 22:55 Clear 58 14.4 56 13.1 92 92 NNE 5 7 30.13 1020 10 16 0.00 0.00
11:15 pm 23:15 Clear 56 13.6 55 12.8 95 95 Calm 30.13 1020 10 16 0.00 0.00
11:35 pm 23:35 Clear 56 13.1 54 12.4 96 96 Calm 30.13 1020 10 16 0.00 0.00
11:55 pm 23:55 Clear 55 13 54 12.1 94 94 Calm 30.12 1020 10 16 0.00 0.00

Powered by AerisWeather